Theta_e
317 317 318 318 312 308 318 324 326 324 323 323 323 324 326 324 319 319 318 318 318 321 327 326 331 330 330 327 325 328 326 326 327 328 328 326 325 324 324 327 334 338 338 361
315 316 317 316 314 308 312 324 326 326 325 323 322 327 326 321 318 319 317 317 317 321 327 330 331 329 327 327 326 326 324 327 328 328 327 328 324 324 323 322 322 328 337 355
313 315 316 317 316 308 312 324 329 328 326 325 322 326 327 324 320 320 319 319 318 320 326 326 331 329 327 326 325 330 324 324 326 328 329 328 332 326 324 323 322 325 326 353
313 313 315 317 317 308 313 324 327 328 328 323 321 324 323 322 319 320 318 320 321 323 326 329 329 326 326 327 327 325 323 325 326 328 331 328 329 330 326 323 324 328 348 352
314 313 314 316 317 308 315 324 328 329 330 328 323 319 319 321 320 319 319 320 321 323 327 329 329 329 329 330 327 327 324 327 335 335 336 336 335 331 332 329 324 344 355 353
314 313 313 315 316 310 321 326 327 330 330 329 323 321 323 322 320 318 319 319 321 324 326 325 324 325 326 328 329 327 329 333 334 338 334 336 338 334 334 338 338 337 347 347
313 314 313 315 315 314 311 317 321 331 333 332 332 325 322 321 320 321 319 317 320 323 321 318 319 318 321 323 324 321 329 333 333 337 336 340 336 331 332 338 338 336 341 340
312 313 314 313 315 315 311 311 318 328 333 333 333 328 321 321 319 318 317 320 320 318 318 320 326 328 328 329 328 323 326 330 334 336 336 337 337 335 333 333 337 337 340 346
311 312 313 313 313 314 311 310 315 323 330 332 331 330 322 320 323 323 319 319 318 319 319 322 331 332 329 332 330 328 333 334 334 332 337 341 338 332 331 329 341 334 339 343
311 311 312 313 313 314 313 309 313 322 328 327 329 330 323 321 323 326 323 320 319 319 323 326 334 334 329 331 332 334 331 330 333 335 338 336 333 332 330 340 340 334 337 333
312 312 312 313 312 314 312 311 316 321 328 327 329 326 326 323 323 327 324 324 323 322 325 328 334 330 328 328 331 335 334 333 335 329 331 336 330 330 329 333 332 334 341 339
313 313 312 313 312 314 311 313 318 322 327 326 321 320 321 321 323 324 327 329 329 327 327 330 330 329 326 327 332 327 332 332 335 333 332 325 328 332 332 331 329 329 330 338
313 313 313 312 312 314 311 311 311 319 326 320 318 319 324 322 321 319 322 325 327 328 325 328 329 328 327 330 328 330 330 329 332 333 331 332 331 326 327 326 324 325 325 328
313 313 313 311 312 314 310 311 315 315 323 328 321 318 320 322 321 319 319 321 326 325 325 325 324 327 325 326 329 327 329 327 325 333 332 327 326 326 325 323 323 323 324 328
312 313 312 311 313 314 308 308 310 312 321 328 326 325 325 320 320 320 319 320 324 326 324 324 325 329 328 326 322 325 324 326 324 330 330 328 327 326 326 323 322 323 324 326
312 311 311 312 314 309 310 319 315 311 316 327 330 327 324 321 321 320 322 322 324 325 325 325 328 327 326 323 330 326 325 325 324 330 327 326 327 327 324 324 324 323 324 324
311 311 312 314 313 308 313 318 318 317 317 327 329 329 326 322 322 322 322 322 325 325 325 326 327 326 324 322 326 328 327 327 326 327 326 326 326 326 325 325 324 323 324 323
311 311 314 314 308 307 309 313 315 315 322 324 326 327 327 324 324 324 323 324 324 328 327 328 329 329 329 329 327 328 329 327 326 325 325 326 324 325 324 324 324 322 322 323
311 312 313 309 307 313 314 313 317 317 322 326 323 325 332 325 325 324 325 326 328 326 327 326 330 330 335 333 330 332 330 328 327 326 326 325 326 327 325 324 323 323 323 322
313 312 311 316 313 315 317 319 325 324 322 326 329 325 332 329 328 325 327 326 328 331 330 331 331 335 334 332 330 331 332 328 327 327 327 326 327 326 325 324 322 321 321 320
310 313 321 320 317 317 321 322 325 324 321 320 323 325 329 327 329 329 328 331 329 333 333 333 335 334 331 332 334 331 330 329 327 328 326 328 325 324 322 321 320 320 321 321
312 313 315 320 321 322 321 324 322 325 321 321 317 321 329 329 327 331 330 332 332 332 329 333 336 334 336 333 332 332 332 329 328 326 326 326 324 322 320 320 320 320 319 318
313 317 320 322 322 320 323 324 325 324 325 323 319 320 326 328 328 330 330 331 332 326 333 334 330 338 336 333 331 330 329 328 327 327 325 324 323 320 320 321 320 319 318 317
318 320 318 321 322 323 324 324 324 323 326 323 323 323 331 328 329 330 330 330 329 332 333 333 332 337 334 332 330 329 329 327 327 325 324 324 323 322 321 320 319 319 317 315
318 319 320 322 321 322 324 326 324 324 323 325 325 325 331 329 331 328 325 326 327 329 330 328 336 335 333 331 330 329 328 327 324 323 324 324 322 321 320 317 315 314 313 312
315 317 321 321 323 324 324 325 325 325 327 325 326 328 329 328 329 328 328 325 327 327 337 337 334 333 332 331 329 327 326 324 323 323 323 323 321 319 317 315 314 312 312 313
315 317 317 319 322 322 322 324 326 326 328 329 330 329 328 327 328 328 327 326 325 335 337 335 334 334 333 331 330 326 324 324 324 324 322 320 318 316 316 315 313 312 312 312
Wind_Speed
20 21 23 22 25 29 9 8 3 9 17 3 4 8 14 4 10 5 5 6 8 6 4 3 4 4 7 18 12 7 7 2 5 8 3 10 6 7 7 4 4 4 5 3
18 20 22 20 21 23 12 4 5 21 11 5 7 5 13 7 3 6 4 6 9 10 5 4 6 3 7 13 11 4 7 4 5 8 7 2 6 8 6 4 1 5 4 4
19 18 21 19 18 18 11 3 3 4 3 6 8 11 11 9 6 3 4 3 8 8 5 9 6 10 9 17 11 2 1 2 4 1 5 9 7 7 9 3 3 5 4 7
18 18 19 19 16 17 8 3 5 9 3 5 12 13 5 7 3 3 4 2 6 6 4 6 2 2 8 13 5 2 2 4 6 6 10 8 13 13 8 8 8 2 6 7
17 18 17 19 17 17 5 3 4 5 11 13 5 6 2 7 4 4 7 7 12 9 6 5 8 5 5 7 8 8 5 4 3 6 13 13 6 10 13 11 10 12 20 7
17 17 17 16 16 13 5 8 7 3 8 8 2 5 2 4 6 5 2 5 5 6 5 7 13 15 7 4 5 4 3 3 5 1 11 11 6 12 16 7 23 2 6 10
17 17 16 14 12 11 6 6 8 3 5 8 10 15 8 11 8 3 9 5 4 5 8 8 7 8 6 9 1 4 2 4 2 2 7 2 4 9 12 11 17 19 12 11
18 17 16 15 12 10 9 10 4 3 5 8 13 21 6 10 5 2 6 5 4 7 5 3 3 5 7 10 12 6 3 4 2 3 1 5 4 7 9 9 6 16 13 9
18 17 15 14 12 11 13 15 11 4 4 4 13 19 7 3 4 5 4 6 4 5 2 2 3 3 2 4 9 6 11 7 4 3 4 2 6 11 11 11 5 9 8 12
17 16 13 14 13 10 12 10 10 4 3 5 9 12 1 3 2 3 5 5 3 3 2 2 4 2 1 3 2 4 0 3 4 4 2 4 7 8 9 4 3 2 9 7
16 15 13 12 11 9 11 12 8 4 3 10 8 13 10 4 3 2 4 1 2 1 0 3 4 3 6 2 4 2 4 3 3 4 2 2 3 8 3 5 3 4 12 5
14 13 11 12 9 6 7 8 5 7 4 6 27 25 29 4 7 3 1 3 2 1 3 1 0 3 4 6 3 7 1 3 1 6 6 7 5 4 3 5 7 5 6 17
12 11 10 11 8 6 7 11 14 6 3 5 8 6 11 5 5 9 2 3 2 4 2 1 2 3 2 2 5 2 4 3 5 5 3 6 5 5 9 7 7 7 8 8
11 10 9 10 7 7 8 7 9 8 5 3 4 15 20 15 13 16 0 4 4 3 2 1 2 2 1 1 2 4 3 3 2 4 6 6 6 6 8 8 8 7 8 8
9 9 10 7 7 7 9 14 17 12 4 3 7 20 20 24 16 6 2 4 2 0 1 1 3 2 3 0 3 3 1 4 3 3 7 6 6 8 9 7 3 7 8 9
8 8 6 5 6 5 2 3 6 12 7 3 3 7 3 16 11 9 3 1 2 1 1 3 2 1 3 2 1 6 3 4 8 3 6 6 7 8 7 6 6 7 8 9
7 5 5 6 6 7 6 3 1 1 5 2 3 3 4 16 10 4 1 6 2 2 3 2 2 1 2 2 2 4 2 8 7 8 8 5 6 6 7 8 11 10 12 10
6 4 5 6 5 6 9 17 7 6 4 2 3 3 3 4 1 2 3 3 1 2 1 3 3 1 2 1 5 5 3 8 8 7 5 3 6 9 6 12 13 7 1 5
6 5 4 2 3 4 6 7 4 6 2 2 3 2 3 9 5 3 2 3 3 3 4 3 2 2 3 5 1 4 6 5 6 7 4 2 3 8 9 9 7 3 4 8
4 4 4 3 8 7 12 3 3 3 3 3 3 2 2 3 3 3 3 3 3 1 4 1 3 3 4 7 5 2 3 7 2 6 5 4 5 8 7 8 8 11 9 13
2 4 1 3 12 5 2 3 4 4 3 4 3 4 2 0 3 1 3 1 2 1 4 4 3 3 4 6 5 7 4 3 4 6 9 7 9 8 9 7 10 16 18 18
4 9 8 3 3 3 4 4 4 5 5 4 11 4 3 2 3 2 3 4 1 3 3 4 3 4 6 7 6 6 7 7 4 14 10 13 15 16 15 15 13 17 18 16
3 3 2 1 2 2 5 6 3 4 4 4 5 6 3 4 1 2 3 4 5 5 3 3 4 3 8 8 7 6 4 7 5 11 16 21 17 21 18 13 23 21 21 18
2 2 2 3 4 5 5 5 4 6 3 5 5 5 5 3 4 9 3 5 4 5 7 5 5 10 9 7 7 7 7 5 9 11 17 18 19 19 20 18 17 19 18 14
2 2 4 6 6 6 6 3 3 5 1 1 3 2 4 2 2 3 2 3 5 4 5 4 7 11 10 8 7 8 7 6 11 16 15 19 20 18 19 18 18 16 13 13
2 4 4 6 7 6 6 0 7 4 1 1 3 2 3 2 0 2 5 4 3 3 3 5 10 10 8 7 7 7 10 18 17 17 19 18 18 19 20 19 16 11 10 13
3 5 7 8 6 6 7 4 4 3 2 2 3 2 3 3 2 4 3 5 6 6 8 5 8 8 8 7 6 14 17 17 18 18 20 20 23 23 18 14 14 16 11 9
Wind_Direction
339 339 341 344 344 350 349 305 272 160 176 161 218 246 286 255 276 3 18 336 312 287 70 34 113 19 348 337 337 353 25 298 301 285 285 169 201 228 222 139 248 187 161 157
335 337 341 343 349 4 343 288 279 291 200 231 248 224 245 239 313 38 1 340 329 350 56 71 -0 7 332 318 335 17 335 347 340 328 347 353 194 266 266 246 331 261 146 198
328 332 337 338 346 354 349 281 286 245 190 239 267 271 267 262 128 190 98 343 310 316 56 66 45 5 323 317 300 314 12 261 217 211 216 285 295 254 266 265 252 263 247 142
331 326 329 335 338 348 335 242 260 327 278 239 233 258 297 357 336 107 26 193 305 300 121 57 84 329 348 320 317 309 266 260 288 312 324 283 313 305 282 261 252 121 133 126
328 328 323 334 336 341 211 285 350 337 302 298 332 218 170 254 355 56 352 357 353 356 77 125 203 197 170 226 315 305 295 297 25 26 358 1 324 325 352 301 265 119 114 87
323 324 325 330 341 354 297 344 324 290 279 307 178 263 158 64 69 354 218 23 342 9 100 176 181 194 178 227 196 305 340 56 28 1 346 326 69 354 355 19 29 14 121 154
315 317 320 322 339 355 307 288 309 291 294 323 327 307 94 80 53 35 346 63 322 19 7 311 278 216 191 237 339 313 80 74 26 5 337 201 280 3 10 64 46 21 49 151
310 308 309 313 318 325 312 281 310 318 299 318 314 328 131 112 119 232 256 29 26 8 305 301 2 14 17 348 337 257 140 100 77 94 54 304 1 3 1 349 23 34 34 356
308 304 297 304 306 315 308 291 259 274 301 258 343 325 101 117 196 184 195 79 32 341 294 277 95 53 133 329 320 32 58 62 103 89 78 45 246 305 316 316 5 13 39 43
305 303 289 293 299 307 307 274 284 289 269 282 341 322 326 168 164 237 123 118 211 208 286 312 94 275 72 193 166 301 75 70 149 143 119 263 248 289 317 70 242 287 128 117
301 297 283 282 293 299 309 269 258 228 275 298 311 324 338 39 36 105 193 66 270 235 90 52 168 157 202 179 237 269 149 136 188 92 90 281 342 296 243 181 65 119 120 153
296 293 279 280 282 281 299 284 303 335 229 285 310 300 298 49 49 75 319 157 176 250 36 190 295 146 161 189 237 163 81 147 106 129 209 245 216 299 336 120 76 25 61 148
289 284 274 286 265 268 262 275 297 328 228 269 253 264 298 320 348 319 85 359 330 60 117 260 284 56 93 99 293 187 120 100 131 88 252 197 189 85 65 53 54 27 32 20
286 275 269 281 251 261 267 248 257 310 274 263 273 259 254 242 238 259 118 346 44 75 86 250 283 25 30 74 179 101 147 103 84 110 173 124 124 111 96 51 30 27 36 44
282 272 280 262 261 261 266 266 264 253 288 321 307 306 283 206 216 156 125 303 35 191 242 211 258 77 59 42 64 339 60 167 140 183 165 137 160 134 125 121 108 61 49 42
283 284 265 243 260 257 275 272 251 238 257 279 289 323 215 176 177 152 187 134 253 219 214 254 101 70 106 102 248 222 121 68 108 136 129 109 133 128 115 128 131 96 86 66
288 273 252 256 238 245 233 279 94 76 311 244 271 247 326 166 174 150 176 206 248 184 246 240 130 122 86 100 177 349 67 93 98 101 96 112 124 137 132 111 113 97 118 96
269 258 257 245 258 275 280 251 285 254 260 284 269 257 20 327 159 161 207 155 173 276 239 313 99 52 137 168 245 259 162 114 108 98 100 122 119 131 132 109 102 77 25 119
256 242 239 247 220 223 225 219 201 199 245 273 246 191 191 189 224 178 185 152 188 233 189 223 116 194 192 195 197 0 137 111 129 135 150 210 188 132 115 106 104 117 119 95
212 177 218 216 191 219 132 141 179 195 224 220 247 307 197 347 21 199 164 171 236 213 224 161 153 209 146 147 154 166 87 135 202 143 167 203 91 113 112 114 101 92 82 78
193 228 312 46 138 169 226 201 202 183 224 220 215 229 161 223 136 293 6 231 195 223 223 154 207 217 225 205 182 177 159 105 170 117 105 103 133 120 108 96 104 105 100 99
323 304 305 267 219 221 225 200 206 195 213 198 191 183 122 90 331 85 83 270 224 239 192 178 219 205 162 153 152 130 159 165 179 139 121 119 118 120 123 118 111 112 119 112
309 239 313 341 257 138 220 206 203 212 222 186 164 163 107 96 18 46 203 93 247 312 205 196 207 166 139 141 136 132 120 152 191 127 137 131 130 129 129 115 107 105 93 90
248 188 178 226 224 224 212 233 225 239 311 199 161 149 142 182 157 203 214 181 178 213 183 210 176 160 153 142 137 133 155 167 122 125 124 117 112 114 112 108 108 108 103 99
246 191 220 229 246 294 282 311 333 272 243 228 131 114 98 48 299 181 181 228 214 203 198 194 157 153 143 138 146 147 161 157 134 129 123 125 123 115 108 103 97 98 104 105
249 246 252 258 271 285 271 240 272 256 302 274 92 74 104 80 150 272 220 210 226 210 107 116 128 129 130 145 152 153 132 130 129 129 125 126 123 125 127 122 123 112 110 119
229 239 229 257 285 264 268 308 347 326 75 80 55 146 92 109 213 229 234 236 234 115 111 108 125 132 141 148 130 126 132 135 133 135 142 143 141 135 133 127 140 144 147 158